Location: Olsztyn
(53.7767°N, 20.4765°E)
Time: 07:35:47
(UTC+01:00)

Transit 4A - Pass Details

Date: 09 October 2022
Orbit: 871 x 972 km, 66.8° (Epoch: 06 December)

Event Time Altitude Azimuth Distance (km) Brightness Sun altitude
Exits shadow 04:53:47 - 318° (NW) 3,366 10.6 -18.4°
Reaches altitude 10° 04:55:56 10° 321° (NW) 2,558 10.0 -18.1°
Maximum altitude 05:01:50 69° 45° (NE) 940 8.1 -17.3°
Drops below altitude 10° 05:07:37 10° 129° (SE) 2,518 10.7 -16.5°
Sets 05:10:06 0° 131° (SE) 3,454 11.4 -16.1°
